Regional Weather Roundup
Issued by NWS

Home | Current Version | Previous Version | Graphics & Text | Print | Product List | Glossary On
Versions: 1 2 3 4 5 6 7 8 9 10 11 12 13 14 15 16 17 18 19 20 21 22 23 24 25 26 27 28 29 30 31 32 33 34 35 36 37 38 39 40 41 42 43 44 45 46 47 48 49 50
000
ASUS43 KLOT 261506
RWRIL

ILLINOIS REGIONAL WEATHER ROUNDUP
NATIONAL WEATHER SERVICE CHICAGO/ROMEOVILLE IL
900 AM CST WED NOV 26 2014

NOTE: "FAIR" INDICATES FEW OR NO CLOUDS BELOW 12,000 FEET WITH NO
SIGNIFICANT WEATHER AND/OR OBSTRUCTIONS TO VISIBILITY.

* THESE STATIONS ARE NOT UNDER NWS QUALITY CONTROL. THEY ALSO MAY NOT
  REPORT WEATHER SUCH AS PRECIPITATION OR FOG.

ILZ001-002-007-009-015-016-024-261600-
NORTHWEST ILLINOIS

CITY           SKY/WX    TMP DP  RH WIND       PRES   REMARKS
MOLINE         SUNNY     24  20  84 E14       30.06S WCI  12
STERLING*      SUNNY     21  18  86 SE12      30.11S WCI   9
SAVANNA*       SUNNY     21  19  91 E5        30.11S FOG     WCI  15
$$

ILZ003-004-008-010-011-017-018-261600-
NORTH CENTRAL ILLINOIS

CITY           SKY/WX    TMP DP  RH WIND       PRES   REMARKS
ROCKFORD       CLOUDY    21  17  84 E7        30.15S FOG     WCI  12
FREEPORT*      CLOUDY    17  15  92 E6        30.14S FOG     WCI   9
ROCHELLE*      CLOUDY    22  20  94 SE10      30.13S FOG     WCI  11
DE KALB*       CLOUDY    21  19  94 E6        30.13S FOG     WCI  13
PERU*          CLOUDY    24  22  91 SE8       30.13S WCI  15
$$

ILZ005-006-012>014-019>023-261600-
NORTHEAST ILLINOIS

CITY           SKY/WX    TMP DP  RH WIND       PRES   REMARKS
CHICAGO-OHARE  CLOUDY    22  18  85 CALM      30.15S FOG
CHICAGO-MIDWAY CLOUDY    26  20  77 SE10      30.16S WCI  16
AURORA         CLOUDY    25  20  81 E9        30.15S HAZE    WCI  15
LANSING*       CLOUDY    25  19  80 SE8       30.16F WCI  16
JOLIET*        CLOUDY    24  19  81 SE7       30.16R WCI  15
WAUKEGAN       MOSUNNY   19  17  92 CALM      30.14F FOG
DUPAGE AIRPORT CLOUDY    22  19  89 S7        30.14S FOG     WCI  13
KANKAKEE*      CLOUDY   N/A N/A N/A E8        30.16S
WHEELING       CLOUDY    22  18  85 CALM      30.17F FOG
MORRIS*        CLOUDY    25  24  93 SE7       30.14F FOG     WCI  17
ROMEOVILLE*    CLOUDY    24  20  86 SE6       30.16R WCI  16
NORTHERLY ISL    N/A     26  21  81 SE13        N/A  WCI  15
$$

LMZ740>746-261600-
SOUTHERN LAKE MICHIGAN

STATION/POSITION SKY/WX   TEMP    WIND        PRES    VSBY  WAVE
                          AIR SEA DIR/SP/G                  HT/PER
                          (F)     (DEG/KT/KT) (MB)    (MI)  (FT/S)
SOUTHERN BUOY              31 42  160/ 12/ 16 1021.8S         1/ 3
WAUKEGAN HARBOR            21     310/  3/  5   N/A
HARRISON CRIB              27     140/ 12/ 19   N/A
BURNHAM HARBOR             26     130/ 10/ 12   N/A
CALUMET HARBOR             25     110/  6/  9 1020.2F
MICHIGAN CITY              24      60/  7/ 12   N/A
$$

ILZ025>027-034>036-040-047-049-050-058-095>099-261600-
WEST-CENTRAL ILLINOIS

CITY           SKY/WX    TMP DP  RH WIND       PRES   REMARKS
QUINCY         CLOUDY    31  25  78 SE12      29.99S WCI  22
GALESBURG*     PTSUNNY   26  25  94 E9        30.03F WCI  17
MACOMB*        CLOUDY    29  27  94 SE14      30.05F WCI  18
JACKSONVILLE*  CLOUDY    32  28  85 SE12      30.05F WCI  23
PITTSFIELD*    CLOUDY    31  28  87 SE13      30.03S WCI  22
$$

ILZ028>032-037-038-041>044-048-051>054-059>061-261600-
CENTRAL ILLINOIS

CITY           SKY/WX    TMP DP  RH WIND       PRES   REMARKS
PONTIAC        CLOUDY    27  24  90 SE12      30.14F WCI  16
BLOOMINGTON    MOSUNNY   24  22  92 SE15      30.12S WCI  11
DECATUR        MOSUNNY   27  24  89 SE14      30.12S WCI  16
PEORIA         MOSUNNY   28  22  78 E10       30.09F WCI  19
LACON*         SUNNY     25  20  83 SE12      30.11F WCI  14
LINCOLN*       SUNNY     29  26  89 SE13      30.11F WCI  18
SPRINGFIELD    MOSUNNY   30  26  85 SE12      30.09S WCI  20
TAYLORVILLE    MOSUNNY   28  25  86 SE14      30.10S WCI  17
$$

ILZ033-039-045-046-055>057-062-063-261600-
EAST-CENTRAL ILLINOIS

CITY           SKY/WX    TMP DP  RH WIND       PRES   REMARKS
CHAMPAIGN      PTSUNNY   25  23  92 SE13      30.14R WCI  14
DANVILLE*      CLOUDY    25  22  87 E7        30.12R WCI  17
RANTOUL*       CLOUDY    28  24  88 SE8       30.14S WCI  19
MATTOON        PTSUNNY   26  22  84 SE10      30.12F WCI  16
PARIS*         CLOUDY    26  24  92 E5        30.15S WCI  21
$$

ILZ079-100>102-261600-
SOUTHWEST ILLINOIS

CITY           SKY/WX    TMP DP  RH WIND       PRES   REMARKS
ALTON          PTSUNNY   30  28  93 SE14      30.07F WCI  20
BELLEVILLE     CLOUDY    30  30  99 SE8       30.08F WCI  22
CAHOKIA*       CLOUDY    31  28  89 SE12      30.06F WCI  22
SPARTA*        CLOUDY    30  27  90 SE13      30.09F WCI  20
$$

ILZ064>066-069>071-074>076-080>082-084>086-088>090-092>094-261600-
SOUTH-CENTRAL ILLINOIS

CITY           SKY/WX    TMP DP  RH WIND       PRES   REMARKS
CARBONDALE     MOSUNNY   31  27  85 SE7       30.13R WCI  24
CAIRO*         MOSUNNY   37  33  88 E6        30.12S WCI  32
EFFINGHAM*     MOSUNNY   29  25  84 E8        30.13S WCI  21
MARION         PTSUNNY   32  28  86 SE9       30.14S WCI  24
MT. VERNON     SUNNY     30  25  80 SE6       30.14R WCI  24
CENTRALIA*     MOSUNNY   30  26  84 SE9       30.12R WCI  22
SALEM*           N/A     31  27  83 SE8       30.12S WCI  24
METROPOLIS*    SUNNY     33  33 100 SE3         N/A  FOG
$$

ILZ067-068-072-073-078-083-087-091-261600-
SOUTHEAST ILLINOIS

CITY           SKY/WX    TMP DP  RH WIND       PRES   REMARKS
LAWRENCEVILLE  MOSUNNY   29  26  89 E6        30.16S FOG     WCI  23
FLORA*         MOSUNNY   29  28  94 SE7       30.14S WCI  22
FAIRFIELD*     SUNNY     30  27  88 SE5       30.13S WCI  26
HARRISBURG*    SUNNY     31  30  97 SE5       30.16S FOG     WCI  26
ROBINSON*      MOSUNNY   29  26  89 E6        30.17S WCI  22
CARMI*         SUNNY     32  32 100 E5        30.14S FOG     WCI  27
$$

ABBREVIATIONS USED IN REMARKS
   TC - TEMPERATURE IN CELSIUS
  WCI - WIND CHILL INDEX
   HX - HEAT INDEX
  VSB - VISIBILITY
$$



USA.gov is the U.S. government's official web portal to all federal, state and local government web resources and services.